一网星座-0547星 (ONEWEB-0547)

导读 | 星芒AI

ONEWEB-0547 是 OneWeb 卫星星座计划中的一颗低轨通信卫星,旨在为全球提供高速互联网服务。该卫星采用模块化设计,搭载先进通信载荷,支持高带宽数据传输。作为 OneWeb 扩展其全球覆盖网络的一部分,ONEWEB-0547 与其他卫星协同工作,为偏远和农村地区提供稳定、低延迟的互联网连接。该卫星由欧洲阿丽亚娜集团制造,并通过火箭发射进入近地轨道,是实现 OneWeb 全球宽带愿景的重要组成部分。

基本信息
目录编号:
56049
目录名称:
ONEWEB-0547
国际标识:
2023-043D
轨道中心:
EARTH
卫星名称:
一网星座-0547星
卫星全名:
一网星座-0547星 (ONEWEB-0547)
卫星状态:
在轨 (已飞行949 天)
发射日期:
2023-03-26 UTC
国别 :
英国 (GB)
星等 :
--
轨道信息
数据来源 国际轨道数据
星历时间: 2025-10-30T05:42:47+0800
10小时前
查看轨道信息
半长轴: 7555.893km
偏心率: 0.0002038
轨道倾角: 87.917°
近地点辐角 90.970°
升交点赤经 289.915°
平近点角 269.166°
近地点: 1176.218km
远地点: 1179.298km
周期: 108.940分钟
每日圈数: 13.218255
详细信息
平衡模式:
三轴稳定
覆盖范围:
全球
运营商:
一网卫星公司
运营商所在国:
英国
制造商(研发单位):
一网卫星公司
制造商所在国:
英国
使用方式:
暂无
卫星简介
OneWeb卫星网络由648颗重约125公斤的微型卫星组成,运行在1200公里的轨道上。 每颗卫星都能够提供至少每秒8千兆位的吞吐量,以使用其高吞吐量的Ku频段有效载荷为家庭和移动平台提供互联网接入。该卫星仍在工作。
2D轨道图
3D轨道图
轨道高度分析图
轨道倾角分析图
轨道综合分析图
查看轨道综合分析图